FENGYUN 1C DEB, 38119

Orbit data source: Space-Track

FENGYUN 1C DEB, 38119 is space debris in SSO originally from a launch on Mon, 10 May 1999 UTC launched from the Taiyaun Space Center, China (TSC). Fengyun 1C debris stems from the Chinese weather satellite Fengyun-1C, which was intentionally destroyed by a Chinese anti-satellite missile in 2007. This event dramatically increased the amount of space debris, with thousands of trackable fragments posing hazards to satellites and human spaceflight. The Fengyun 1C debris cloud has become a focal point in discussions about space sustainability and the need for international regulations to prevent the creation of new debris.

Loading next visibility...
Identifier
38119, 1999-025EPQ
Orbit
SSO
Country
Flag of CNCN / PRC
Related business
Manufacturer
Unknown
Mission
Spacecraft
Bus & Motor
Unknown
Mass
Unknown
Launch date (UTC)
1999-05-10 (27 years ago)
Launch vehicle
Unknown
Launch site
Taiyaun Space Center, China (TSC)
Object type
Payload
Rocket body
Debris
Shape & HBR
Unknown shape, 0.1 m
Radar Cross Section
Small (<0.1 m²)

Expand to show TLE details & history
Last TLE update: 18 hours ago

TLE from 18 hours ago
0 FENGYUN 1C DEB
1 38119U 99025EPQ 26237.96197457  .00008897  00000-0  33179-2 0  9992
2 38119  98.5901 307.8971 0222571 210.9715 147.8179 14.19385361576393
Epoch: 2026-08-25T23:05Z
TLE epoch observation values (Epoch: 2026-08-25T23:05:14.602Z)
Latitude
-0.00004°
Longitude
-12.63554°
Altitude
967.097 km
Speed
7.298 km/s
True Right ascension
20h 31m 35s
True Declination
0° 00' 00"
Sunlit
Object was in full shadow at epoch
Visualization orbit readout
Latitude
Unknown
Longitude
Unknown
Altitude
Unknown
Speed
Unknown
Apparent Right ascension
Unknown
Apparent Declination
Unknown
Sunlit
N/A
Visualization observer readout
Local Sidereal Time
08:07:17
Azimuth
Unknown
Elevation
Unknown
Doppler factor
Unknown
Orbital elements
Apogee altitude
984.895 km
Perigee altitude
664.272 km
Semi-major axis
7,202.721 km
Eccentricity
0.02226
Inclination
98.5901°
RAAN
307.8971°
Arg. of periapsis
210.9715°
True anomaly
149.14492°
Mean anomaly
147.8179°
Eccentric anomaly
148.4845°
Mean motion
3.55057 °/min
Orbital period
101.39 mins
BSTAR
0.0033179
Loading maneuver chart data...
Computing Atmospheric mass density...

Documentation

Showing up to 5 results
|